| time (UTC) | temp F | wind direction | speed MPH | gust MPH | rain 1hr in | rain 24hr in | rain mn in | humidity % | barometer mb |
| 20260506090355 | 48 | 360 | 0.0 | 1.0 | 0.01 | 0.73 | 0.37 | 97 | 1004.6 |
| 20260506085355 | 48 | 360 | 0.0 | 1.0 | 0.01 | 0.73 | 0.37 | 97 | 1004.4 |
| 20260506084354 | 48 | 360 | 0.0 | 2.0 | 0.01 | 0.73 | 0.37 | 97 | 1004.4 |
| 20260506083355 | 48 | 360 | 0.0 | 1.0 | 0.01 | 0.73 | 0.37 | 97 | 1004.3 |
| 20260506082355 | 48 | 360 | 0.0 | 2.0 | 0.01 | 0.73 | 0.37 | 97 | 1004.1 |
| 20260506081356 | 47 | 360 | 0.0 | 2.0 | 0.00 | 0.72 | 0.36 | 97 | 1004.2 |
| 20260506080355 | 47 | 360 | 0.0 | 1.0 | 0.01 | 0.72 | 0.36 | 97 | 1004.2 |
| 20260506073355 | 48 | 360 | 0.0 | 1.0 | 0.03 | 0.73 | 0.36 | 97 | 1004.1 |
| 20260506072354 | 48 | 360 | 0.0 | 1.0 | 0.03 | 0.73 | 0.36 | 97 | 1004.1 |
| 20260506071356 | 48 | 360 | 0.0 | 2.0 | 0.04 | 0.73 | 0.36 | 97 | 1004.1 |
| 20260506070355 | 48 | 360 | 0.0 | 1.0 | 0.03 | 0.72 | 0.36 | 97 | 1004.1 |
| 20260506062355 | 48 | 360 | 0.0 | 1.0 | 0.03 | 0.69 | 0.33 | 97 | 1003.8 |
| 20260506061354 | 48 | 360 | 0.0 | 1.0 | 0.03 | 0.68 | 0.32 | 97 | 1003.8 |
| 20260506060354 | 48 | 360 | 0.0 | 1.0 | 0.03 | 0.68 | 0.32 | 97 | 1003.7 |
| 20260506051354 | 48 | 360 | 0.0 | 1.0 | 0.01 | 0.67 | 0.29 | 97 | 1003.7 |
| 20260506050355 | 48 | 360 | 0.0 | 2.0 | 0.01 | 0.67 | 0.29 | 97 | 1003.7 |
| 20260506044354 | 48 | 360 | 0.0 | 1.0 | 0.02 | 0.72 | 0.29 | 97 | 1003.7 |
| 20260506043355 | 48 | 360 | 0.0 | 1.0 | 0.01 | 0.71 | 0.29 | 97 | 1003.7 |
| 20260506042354 | 48 | 360 | 0.0 | 1.0 | 0.01 | 0.71 | 0.29 | 97 | 1003.7 |
| 20260506041356 | 48 | 360 | 0.0 | 1.0 | 0.01 | 0.71 | 0.29 | 97 | 1003.7 |
| 20260506040355 | 49 | 360 | 0.0 | 1.0 | 0.01 | 0.71 | 0.29 | 97 | 1003.7 |
| 20260506035355 | 49 | 360 | 0.0 | 3.0 | 0.02 | 0.71 | 0.29 | 97 | 1003.7 |
| 20260506034354 | 49 | 360 | 0.0 | 1.0 | 0.02 | 0.70 | 0.28 | 97 | 1003.7 |
| 20260506033354 | 49 | 360 | 0.0 | 2.0 | 0.02 | 0.70 | 0.28 | 97 | 1003.8 |
| 20260506032354 | 49 | 360 | 0.0 | 1.0 | 0.03 | 0.70 | 0.28 | 97 | 1003.7 |
| 20260506031355 | 49 | 360 | 0.0 | 1.0 | 0.03 | 0.70 | 0.28 | 97 | 1003.8 |
| 20260506030354 | 49 | 360 | 0.0 | 0.0 | 0.03 | 0.70 | 0.28 | 97 | 1003.9 |
| 20260506025354 | 49 | 360 | 0.0 | 1.0 | 0.03 | 0.71 | 0.27 | 97 | 1004.0 |
| 20260506024355 | 49 | 360 | 0.0 | 1.0 | 0.03 | 0.70 | 0.26 | 97 | 1004.1 |
| 20260506023354 | 49 | 360 | 0.0 | 1.0 | 0.03 | 0.70 | 0.26 | 97 | 1004.1 |
| 20260506022356 | 49 | 360 | 0.0 | 1.0 | 0.03 | 0.69 | 0.25 | 97 | 1004.2 |
| 20260506021355 | 49 | 360 | 0.0 | 1.0 | 0.02 | 0.68 | 0.24 | 97 | 1004.2 |
| 20260506020354 | 49 | 360 | 0.0 | 1.0 | 0.02 | 0.68 | 0.24 | 97 | 1004.2 |
| 20260506015356 | 49 | 360 | 0.0 | 1.0 | 0.03 | 0.68 | 0.24 | 97 | 1004.2 |
| 20260506014355 | 49 | 360 | 0.0 | 1.0 | 0.03 | 0.68 | 0.23 | 97 | 1004.2 |
| 20260506013354 | 49 | 360 | 0.0 | 1.0 | 0.04 | 0.68 | 0.23 | 97 | 1004.4 |
| 20260506012354 | 49 | 360 | 0.0 | 1.0 | 0.04 | 0.67 | 0.23 | 97 | 1004.4 |
| 20260506011355 | 49 | 360 | 0.0 | 1.0 | 0.05 | 0.67 | 0.23 | 97 | 1004.4 |
| 20260506010355 | 49 | 360 | 0.0 | 1.0 | 0.06 | 0.67 | 0.23 | 97 | 1004.5 |
| 20260506005354 | 49 | 360 | 0.0 | 1.0 | 0.06 | 0.66 | 0.22 | 97 | 1004.5 |
| 20260506004354 | 49 | 360 | 0.0 | 1.0 | 0.07 | 0.65 | 0.21 | 97 | 1004.6 |
| 20260506003355 | 49 | 360 | 0.0 | 2.0 | 0.06 | 0.63 | 0.19 | 97 | 1004.6 |
| 20260506002354 | 49 | 360 | 0.0 | 1.0 | 0.06 | 0.62 | 0.18 | 97 | 1004.7 |
| 20260506001356 | 49 | 360 | 0.0 | 1.0 | 0.07 | 0.61 | 0.17 | 97 | 1004.8 |
| 20260506000355 | 49 | 360 | 0.0 | 1.0 | 0.08 | 0.61 | 0.16 | 97 | 1004.9 |
| 20260505235354 | 49 | 360 | 0.0 | 1.0 | 0.10 | 0.60 | 0.16 | 97 | 1004.9 |
| 20260505234354 | 49 | 360 | 0.0 | 1.0 | 0.10 | 0.58 | 0.14 | 97 | 1005.0 |
| 20260505233355 | 49 | 360 | 0.0 | 0.0 | 0.10 | 0.57 | 0.13 | 97 | 1005.1 |
| 20260505232355 | 49 | 360 | 0.0 | 1.0 | 0.10 | 0.56 | 0.12 | 97 | 1005.1 |
| 20260505231356 | 49 | 360 | 0.0 | 1.0 | 0.09 | 0.55 | 0.10 | 97 | 1005.2 |
| 20260505230355 | 49 | 360 | 0.0 | 1.0 | 0.09 | 0.53 | 0.09 | 97 | 1005.2 |
| 20260505225355 | 49 | 360 | 0.0 | 1.0 | 0.07 | 0.50 | 0.06 | 97 | 1005.3 |
| 20260505224356 | 49 | 360 | 0.0 | 1.0 | 0.06 | 0.49 | 0.04 | 97 | 1005.3 |
| 20260505223355 | 49 | 360 | 0.0 | 3.0 | 0.06 | 0.48 | 0.03 | 97 | 1005.4 |
| 20260505222355 | 49 | 360 | 0.0 | 1.0 | 0.06 | 0.47 | 0.03 | 97 | 1005.4 |
| 20260505221354 | 49 | 360 | 0.0 | 2.0 | 0.07 | 0.46 | 0.02 | 97 | 1005.5 |
| 20260505220356 | 49 | 360 | 0.0 | 1.0 | 0.07 | 0.44 | 0.00 | 97 | 1005.5 |
| 20260505215356 | 49 | 360 | 0.0 | 1.0 | 0.07 | 0.43 | 0.43 | 97 | 1005.5 |
| 20260505214354 | 49 | 360 | 0.0 | 1.0 | 0.08 | 0.42 | 0.42 | 97 | 1005.6 |
| 20260505213356 | 49 | 360 | 0.0 | 1.0 | 0.08 | 0.42 | 0.42 | 97 | 1005.7 |
| 20260505212355 | 50 | 360 | 0.0 | 1.0 | 0.08 | 0.41 | 0.41 | 97 | 1005.8 |
| 20260505211354 | 50 | 360 | 0.0 | 1.0 | 0.07 | 0.39 | 0.39 | 97 | 1005.8 |
| 20260505210355 | 50 | 360 | 0.0 | 2.0 | 0.06 | 0.37 | 0.37 | 97 | 1005.9 |
| 20260505205355 | 50 | 360 | 0.0 | 1.0 | 0.07 | 0.37 | 0.36 | 97 | 1005.9 |
| 20260505204354 | 50 | 360 | 0.0 | 1.0 | 0.06 | 0.36 | 0.35 | 97 | 1005.9 |
| 20260505203355 | 50 | 360 | 0.0 | 2.0 | 0.06 | 0.35 | 0.34 | 96 | 1005.9 |
| 20260505202354 | 50 | 360 | 1.0 | 4.0 | 0.07 | 0.34 | 0.33 | 97 | 1005.9 |
| 20260505201355 | 50 | 360 | 0.0 | 2.0 | 0.07 | 0.33 | 0.32 | 97 | 1005.9 |
| 20260505200355 | 50 | 360 | 0.0 | 2.0 | 0.07 | 0.32 | 0.31 | 96 | 1005.9 |
| 20260505195355 | 51 | 360 | 1.0 | 3.0 | 0.07 | 0.30 | 0.29 | 96 | 1005.9 |
| 20260505194355 | 51 | 360 | 0.0 | 2.0 | 0.07 | 0.29 | 0.29 | 97 | 1005.8 |
| 20260505193354 | 51 | 360 | 0.0 | 1.0 | 0.07 | 0.29 | 0.28 | 97 | 1005.9 |
| 20260505192356 | 51 | 360 | 0.0 | 1.0 | 0.06 | 0.27 | 0.26 | 97 | 1005.9 |
| 20260505191355 | 51 | 360 | 0.0 | 1.0 | 0.06 | 0.26 | 0.25 | 96 | 1005.8 |
| 20260505190355 | 51 | 360 | 0.0 | 4.0 | 0.06 | 0.25 | 0.24 | 96 | 1005.9 |
| 20260505185354 | 51 | 360 | 0.0 | 1.0 | 0.05 | 0.23 | 0.23 | 96 | 1005.8 |
| 20260505184354 | 51 | 360 | 0.0 | 3.0 | 0.05 | 0.23 | 0.22 | 96 | 1005.9 |
| 20260505183355 | 51 | 360 | 1.0 | 2.0 | 0.05 | 0.22 | 0.21 | 96 | 1005.9 |
| 20260505182354 | 51 | 360 | 0.0 | 4.0 | 0.06 | 0.21 | 0.20 | 96 | 1005.9 |
| 20260505181356 | 51 | 360 | 0.0 | 2.0 | 0.05 | 0.20 | 0.19 | 96 | 1005.8 |
| 20260505180356 | 52 | 360 | 0.0 | 2.0 | 0.05 | 0.19 | 0.18 | 96 | 1005.9 |
| 20260505175355 | 52 | 360 | 1.0 | 2.0 | 0.05 | 0.19 | 0.17 | 96 | 1006.0 |
| 20260505174355 | 52 | 360 | 0.0 | 3.0 | 0.04 | 0.18 | 0.16 | 96 | 1006.0 |
| 20260505173354 | 52 | 360 | 0.0 | 4.0 | 0.03 | 0.17 | 0.16 | 96 | 1006.0 |
| 20260505172355 | 52 | 360 | 1.0 | 3.0 | 0.02 | 0.16 | 0.14 | 96 | 1006.0 |
| 20260505171355 | 52 | 360 | 0.0 | 3.0 | 0.02 | 0.16 | 0.14 | 96 | 1006.1 |
| 20260505170354 | 53 | 360 | 0.0 | 2.0 | 0.01 | 0.15 | 0.13 | 96 | 1006.0 |
| 20260505165354 | 53 | 360 | 0.0 | 2.0 | 0.01 | 0.16 | 0.12 | 96 | 1006.1 |
| 20260505164355 | 53 | 360 | 1.0 | 3.0 | 0.02 | 0.16 | 0.12 | 96 | 1006.0 |
| 20260505163355 | 53 | 360 | 0.0 | 3.0 | 0.02 | 0.16 | 0.12 | 95 | 1006.1 |
| 20260505162354 | 53 | 360 | 0.0 | 3.0 | 0.03 | 0.16 | 0.12 | 95 | 1006.1 |
| 20260505161354 | 53 | 360 | 0.0 | 3.0 | 0.03 | 0.16 | 0.12 | 95 | 1006.2 |
| 20260505160356 | 53 | 360 | 1.0 | 2.0 | 0.03 | 0.16 | 0.12 | 95 | 1006.2 |
| 20260505153354 | 54 | 360 | 0.0 | 2.0 | 0.02 | 0.16 | 0.10 | 94 | 1006.2 |
| 20260505152355 | 54 | 360 | 1.0 | 3.0 | 0.01 | 0.15 | 0.10 | 94 | 1006.3 |
| 20260505151355 | 54 | 360 | 0.0 | 1.0 | 0.01 | 0.15 | 0.10 | 93 | 1006.4 |
| 20260505150354 | 55 | 360 | 1.0 | 4.0 | 0.00 | 0.14 | 0.09 | 93 | 1006.4 |
| 20260505140354 | 58 | 360 | 0.0 | 2.0 | 0.00 | 0.16 | 0.09 | 91 | 1006.6 |
| 20260505124353 | 58 | 360 | 0.0 | 3.0 | 0.00 | 0.16 | 0.09 | 89 | 1007.3 |
| 20260505123122 | 58 | 360 | 0.0 | 3.0 | 0.00 | 0.16 | 0.09 | 89 | 1007.3 |
| 20260505122124 | 58 | 360 | 0.0 | 2.0 | 0.00 | 0.16 | 0.09 | 89 | 1007.2 |
| 20260505121123 | 58 | 360 | 1.0 | 3.0 | 0.00 | 0.16 | 0.09 | 89 | 1007.3 |
| 20260505120123 | 58 | 360 | 0.0 | 2.0 | 0.00 | 0.16 | 0.09 | 88 | 1007.5 |
| 20260505115122 | 58 | 360 | 0.0 | 2.0 | 0.00 | 0.16 | 0.09 | 88 | 1007.5 |
| 20260505114124 | 58 | 360 | 0.0 | 3.0 | 0.00 | 0.16 | 0.09 | 87 | 1007.5 |
| 20260505113124 | 59 | 74 | 1.0 | 5.0 | 0.00 | 0.16 | 0.09 | 86 | 1007.5 |
| 20260505112123 | 60 | 84 | 0.0 | 3.0 | 0.00 | 0.16 | 0.09 | 86 | 1007.5 |
| 20260505111122 | 59 | 207 | 0.0 | 1.0 | 0.00 | 0.16 | 0.09 | 84 | 1007.6 |
| 20260505110124 | 59 | 207 | 0.0 | 2.0 | 0.00 | 0.16 | 0.09 | 86 | 1007.6 |
| 20260505102122 | 57 | 238 | 0.0 | 1.0 | 0.00 | 0.16 | 0.09 | 90 | 1007.9 |
| 20260505101122 | 57 | 238 | 0.0 | 1.0 | 0.00 | 0.16 | 0.09 | 91 | 1008.0 |
| 20260505100122 | 57 | 229 | 0.0 | 1.0 | 0.00 | 0.16 | 0.09 | 92 | 1008.1 |
| 20260505095123 | 57 | 229 | 0.0 | 0.0 | 0.00 | 0.16 | 0.09 | 92 | 1008.1 |
| 20260505094123 | 56 | 228 | 0.0 | 1.0 | 0.00 | 0.16 | 0.09 | 92 | 1008.1 |
| 20260505093122 | 56 | 227 | 0.0 | 0.0 | 0.00 | 0.16 | 0.09 | 92 | 1008.1 |
| 20260505092122 | 56 | 225 | 0.0 | 0.0 | 0.00 | 0.16 | 0.09 | 93 | 1008.1 |
| 20260505091123 | 56 | 192 | 0.0 | 2.0 | 0.00 | 0.16 | 0.09 | 93 | 1008.2 |